Total_Precipitation_Accumulation
0.46 0.45 0.43 0.41 0.42 0.70 1.30 1.42 1.06 0.32 0.29 0.68 0.45 0.15 0.00 0.00 0.00 0.00 0.00 0.00 0.00 0.00 0.01 0.01 0.01 0.02 0.01 0.00 0.00 0.00 0.00 0.01 0.01 0.01 0.01 0.04 0.07 0.10 0.12 0.15 0.08 0.02 0.05 0.02
0.52 0.51 0.53 0.57 0.52 0.88 1.33 1.86 0.87 0.99 0.72 0.77 0.40 0.14 0.05 0.01 0.00 0.00 0.01 0.01 0.01 0.00 0.00 0.03 0.01 0.01 0.00 0.00 0.00 0.01 0.02 0.05 0.03 0.01 0.04 0.04 0.04 0.04 0.09 0.09 0.06 0.05 0.11 0.04
0.68 0.60 0.66 0.63 0.78 1.17 1.91 2.02 1.28 1.48 1.20 0.34 0.22 0.32 0.25 0.10 0.03 0.01 0.02 0.01 0.01 0.02 0.04 0.04 0.05 0.05 0.02 0.02 0.01 0.01 0.10 0.06 0.04 0.04 0.06 0.04 0.03 0.02 0.05 0.15 0.31 0.14 0.03 0.00
0.81 0.76 0.83 0.81 0.94 1.55 3.31 3.15 0.99 0.54 0.67 0.48 0.23 0.17 0.21 0.20 0.15 0.06 0.05 0.05 0.08 0.15 0.14 0.08 0.08 0.11 0.13 0.05 0.04 0.04 0.11 0.10 0.01 0.01 0.01 0.01 0.01 0.00 0.00 0.02 0.07 0.26 0.13 0.01
0.88 0.90 1.10 1.08 1.31 2.26 4.07 3.00 0.68 0.37 0.19 0.17 0.26 0.30 0.18 0.10 0.11 0.27 0.26 0.20 0.15 0.18 0.27 0.32 0.27 0.30 0.42 0.29 0.20 0.25 0.25 0.16 0.03 0.02 0.00 0.00 0.00 0.00 0.00 0.00 0.00 0.00 0.00 0.00
0.92 0.91 1.17 1.34 1.72 3.20 4.71 2.08 0.45 0.55 0.45 0.25 0.28 0.27 0.24 0.21 0.38 0.24 0.22 0.51 0.57 0.27 0.26 0.29 0.17 0.18 0.23 0.32 0.43 0.49 0.51 0.37 0.24 0.10 0.02 0.05 0.05 0.00 0.00 0.00 0.00 0.00 0.00 0.00
0.84 0.90 1.11 1.43 1.82 2.72 2.98 1.23 0.62 1.09 0.76 0.29 0.16 0.08 0.16 0.28 0.24 0.27 0.12 0.15 0.23 0.14 0.13 0.24 0.16 0.12 0.10 0.04 0.10 0.26 0.41 0.50 0.55 0.27 0.17 0.25 0.03 0.00 0.00 0.00 0.01 0.01 0.02 0.01
0.74 0.86 1.07 1.31 1.49 1.83 2.10 1.44 1.01 1.05 0.66 0.22 0.15 0.17 0.18 0.06 0.04 0.05 0.04 0.04 0.07 0.19 0.24 0.46 0.50 0.38 0.29 0.16 0.06 0.05 0.11 0.28 0.56 0.42 0.26 0.12 0.02 0.03 0.08 0.08 0.15 0.11 0.08 0.07
0.71 0.72 0.98 1.07 1.22 1.45 1.86 1.64 1.17 1.36 1.27 0.27 0.13 0.16 0.10 0.10 0.11 0.15 0.12 0.06 0.13 0.38 0.40 0.49 0.47 0.44 0.45 0.41 0.45 0.12 0.10 0.19 0.47 0.51 0.35 0.10 0.05 0.06 0.04 0.08 0.29 0.30 0.25 0.29
0.77 0.65 0.70 0.94 0.98 1.24 1.71 1.87 1.30 1.88 1.70 0.30 0.15 0.34 0.23 0.11 0.18 0.34 0.26 0.32 0.35 0.53 0.64 0.53 0.27 0.17 0.19 0.29 0.67 0.93 0.63 0.67 0.56 0.41 0.67 0.13 0.01 0.06 0.08 0.35 0.63 0.48 0.64 0.78
0.67 0.56 0.58 0.76 0.86 1.06 1.58 1.70 1.33 1.68 1.81 0.50 0.28 0.21 0.23 0.22 0.28 0.39 0.39 0.62 0.59 0.69 0.74 0.43 0.21 0.24 0.23 0.27 0.24 0.94 1.29 1.35 0.91 0.73 0.76 0.22 0.08 0.35 0.60 0.59 0.34 0.44 0.82 0.66
0.62 0.55 0.59 0.63 0.71 0.96 1.60 1.72 1.26 1.33 2.19 1.13 0.48 0.21 0.11 0.13 0.07 0.20 0.30 0.42 0.51 0.89 1.03 0.80 0.53 0.30 0.30 0.21 0.31 0.82 1.16 0.94 0.83 0.51 0.31 0.10 0.12 0.32 0.44 0.32 0.34 0.40 0.22 0.18
0.62 0.59 0.62 0.71 0.70 0.97 1.57 1.54 1.23 1.92 2.91 1.69 0.64 0.28 0.07 0.14 0.08 0.15 0.44 0.14 0.08 0.24 0.59 1.00 0.70 0.51 0.32 0.31 0.32 0.57 0.84 0.81 1.16 0.57 0.25 0.21 0.22 0.21 0.26 0.40 0.35 0.20 0.24 0.35
0.67 0.61 0.64 0.70 0.96 1.15 1.47 1.57 1.58 2.01 2.93 1.79 0.75 0.39 0.24 0.12 0.15 0.06 0.23 0.19 0.25 0.45 0.67 1.16 0.90 0.56 0.27 0.15 0.16 0.29 0.84 0.79 0.89 1.13 1.30 0.77 0.40 0.37 0.30 0.29 0.38 0.41 0.26 0.23
0.70 0.67 0.72 0.97 1.24 1.53 1.86 1.66 1.50 1.61 2.03 1.46 0.64 0.45 0.30 0.27 0.24 0.16 0.25 0.49 0.63 0.90 0.94 0.96 0.51 0.21 0.26 0.18 0.15 0.33 0.27 0.31 0.64 1.07 1.12 1.39 1.01 1.19 0.90 0.64 0.37 0.28 0.16 0.23
0.85 0.84 0.97 1.42 1.73 2.16 3.89 4.70 2.40 1.38 1.59 2.73 1.25 0.52 0.40 0.49 0.44 0.37 0.19 0.30 0.82 1.29 1.29 0.64 0.27 0.14 0.54 0.63 0.24 0.04 0.01 0.12 0.42 0.43 0.57 0.80 1.02 0.74 0.36 0.34 0.39 0.20 0.08 0.07
0.97 1.06 1.41 1.71 2.09 3.09 4.07 2.69 1.52 1.06 1.73 3.62 2.13 0.81 0.47 0.69 0.58 0.44 0.36 0.34 0.61 1.01 1.62 1.10 0.40 0.21 0.78 0.78 0.24 0.02 0.01 0.04 0.09 0.09 0.13 0.25 0.24 0.25 0.18 0.15 0.21 0.13 0.05 0.06
1.29 1.48 1.72 2.16 3.49 3.98 2.63 1.55 1.43 0.98 1.79 2.50 2.30 1.17 0.93 1.14 0.74 0.53 0.34 0.42 0.71 0.90 1.00 0.81 0.62 0.47 0.72 0.67 0.09 0.00 0.00 0.01 0.01 0.02 0.05 0.14 0.08 0.05 0.08 0.06 0.06 0.04 0.06 0.12
1.93 2.65 3.81 5.49 5.49 3.92 2.06 2.09 2.41 2.00 2.19 2.21 1.44 1.34 1.43 1.67 1.23 0.77 0.94 0.94 1.14 0.82 0.68 0.43 0.69 0.65 0.62 0.26 0.04 0.02 0.02 0.02 0.02 0.01 0.01 0.02 0.04 0.04 0.05 0.04 0.05 0.08 0.08 0.03
3.86 5.68 6.84 6.62 3.70 1.85 2.12 3.89 4.22 3.96 2.90 1.94 0.95 0.87 1.55 1.70 1.77 1.39 1.79 1.63 0.95 0.72 0.29 0.38 0.54 0.40 0.22 0.13 0.16 0.04 0.02 0.01 0.01 0.01 0.03 0.04 0.05 0.08 0.08 0.07 0.05 0.03 0.03 0.03
5.67 4.99 3.69 2.88 2.36 2.14 2.89 3.36 2.66 1.91 1.23 0.65 0.29 0.32 1.03 1.48 1.74 1.44 1.49 1.92 1.12 0.51 0.20 0.46 0.41 0.25 0.24 0.23 0.20 0.09 0.03 0.02 0.01 0.01 0.02 0.07 0.12 0.07 0.01 0.01 0.01 0.03 0.05 0.07
2.90 2.19 2.25 2.83 2.74 2.55 2.21 2.00 1.37 0.53 0.18 0.10 0.16 0.21 0.59 1.50 1.77 1.67 1.47 1.14 1.35 0.62 0.38 0.52 0.30 0.20 0.06 0.06 0.07 0.10 0.11 0.07 0.07 0.10 0.09 0.05 0.02 0.03 0.03 0.03 0.05 0.09 0.14 0.22
2.36 2.35 2.76 2.80 2.65 2.02 1.35 0.82 0.45 0.20 0.11 0.11 0.16 0.34 0.42 0.96 1.44 1.74 1.57 1.18 0.90 0.68 0.68 0.37 0.16 0.12 0.09 0.05 0.03 0.04 0.08 0.15 0.07 0.04 0.04 0.04 0.05 0.06 0.08 0.12 0.20 0.26 0.35 0.46
2.82 2.92 2.74 2.10 1.62 1.09 0.65 0.26 0.14 0.12 0.12 0.11 0.14 0.34 0.67 0.89 0.99 1.23 1.48 1.51 0.93 1.01 0.57 0.30 0.30 0.20 0.16 0.13 0.09 0.04 0.04 0.15 0.42 0.26 0.10 0.11 0.14 0.18 0.28 0.38 0.43 0.39 0.49 0.67
1.95 1.18 1.19 1.13 0.80 0.59 0.49 0.27 0.18 0.19 0.18 0.19 0.38 0.66 0.96 1.14 1.32 1.09 0.92 1.21 1.14 0.74 0.54 0.58 0.56 0.28 0.17 0.16 0.18 0.21 0.23 0.25 0.37 0.59 0.61 0.50 0.46 0.47 0.58 0.63 0.61 0.46 0.50 0.54
0.88 0.76 0.81 0.66 0.56 0.71 0.57 0.44 0.43 0.42 0.45 0.52 0.87 1.22 1.23 1.36 1.05 0.99 0.76 0.68 0.58 0.64 0.47 0.45 0.33 0.35 0.33 0.33 0.35 0.44 0.51 0.59 0.69 0.79 0.84 0.88 0.78 0.68 0.79 0.85 0.73 0.74 0.61 0.66
0.69 0.71 0.62 0.49 0.54 0.73 0.66 0.57 0.58 0.57 0.64 0.74 0.79 0.99 1.01 0.90 0.71 0.67 0.50 0.57 0.49 0.38 0.38 0.44 0.42 0.43 0.48 0.53 0.54 0.63 0.60 0.60 0.68 0.77 0.70 0.75 0.77 0.65 0.48 0.58 0.75 0.64 0.60 0.54